DW4188 Victoria Point QNL AU current weather conditions

sailwx.info

Wind from 014 at 8 knots gusting 11

Air temperature 30.6° C
Dewpoint 17.9° C

Last reported at 2014-Oct-31 06:08 UTC.
Time now 2014-Oct-31 18:43 UTC

Location: S 27°35' E 153°18'.
View on Google Maps.

See reports from other nearby stations

  
Tides and Currents Weather Stations Pressure Air Temp Water Temp Dewpoint Dewpoint Depression Visibility Wind Speed Wind Dir Waves Ship Positions
date/time (UTC)wind fromknots sea level pressurealtimeterstation pressurevisibilityair tempwater tempwave heightnotes
2014-Oct-31 06:08 014 8 gusting 11 30.6
2014-Oct-31 05:59 014 4 gusting 9 30.6
2014-Oct-31 05:41 024 3 gusting 11 30.6
2014-Oct-31 05:32 024 3 gusting 10 30.6
2014-Oct-31 04:56 018 4 gusting 11 30.6
2014-Oct-31 04:47 011 5 gusting 9 30.6
2014-Oct-31 04:38 014 3 gusting 11 30.6
2014-Oct-31 04:20 028 3 gusting 9 30.6
2014-Oct-31 04:02 017 4 gusting 11 30.6
2014-Oct-31 03:53 015 4 gusting 9 30.6
2014-Oct-31 03:44 020 3 gusting 11 30.6
2014-Oct-31 03:26 011 6 gusting 10 30.6
2014-Oct-31 03:08 027 5 gusting 7 30.6
2014-Oct-31 02:50 014 4 gusting 7 30.6
2014-Oct-31 02:41 007 3 gusting 8 30.6
2014-Oct-31 02:32 014 6 gusting 7 30.6
2014-Oct-31 02:23 013 4 gusting 7 30.6
2014-Oct-31 02:14 019 5 gusting 7 30.6
2014-Oct-31 02:05 014 3 gusting 7 30.6
2014-Oct-31 01:56 030 4 gusting 8 30.6
2014-Oct-31 01:47 030 4 gusting 7 30.6
2014-Oct-31 01:38 354 3 gusting 6 30.6
2014-Oct-31 01:20 011 3 gusting 7 30.6
2014-Oct-31 01:11 354 3 gusting 6 30.6
2014-Oct-31 01:02 022 2 gusting 6 30.6
2014-Oct-31 00:53 012 5 gusting 6 30.6
2014-Oct-31 00:44 011 4 gusting 11 30.6
2014-Oct-31 00:35 015 2 gusting 11 30.6
2014-Oct-31 00:26 357 5 gusting 7 -0.0
2014-Oct-31 00:18 005 3 gusting 5 -0.0
2014-Oct-31 00:10 007 3 gusting 7 -0.0
2014-Oct-30 23:59 022 3 gusting 7 -0.0
2014-Oct-30 23:50 028 4 gusting 5 -0.0
2014-Oct-30 23:41 020 2 gusting 3 -0.0
2014-Oct-30 23:23 006 1 gusting 3 -0.0
2014-Oct-30 23:14 352 3 gusting 5 -0.0
2014-Oct-30 23:05 337 2 gusting 4 -0.0
2014-Oct-30 22:29 001 1 gusting 4 -0.0
2014-Oct-30 22:14 327 5 gusting 5 23.9
2014-Oct-30 22:05 320 2 gusting 5 23.9
2014-Oct-30 21:56 331 5 gusting 6 23.9
2014-Oct-30 21:47 003 2 gusting 3 23.9
2014-Oct-30 21:38 352 2 gusting 5 23.9
2014-Oct-30 21:29 339 2 gusting 5 23.9
2014-Oct-30 21:20 349 2 gusting 5 23.9
2014-Oct-30 21:11 342 2 gusting 3 23.9
2014-Oct-30 21:02 347 1 gusting 3 23.9
2014-Oct-30 20:44 347 1 gusting 5 23.9
2014-Oct-30 20:35 353 2 gusting 5 23.9
2014-Oct-30 20:26 348 2 gusting 4 23.9
2014-Oct-30 20:08 318 23.9
2014-Oct-30 19:50 346 0 gusting 4 23.9
2014-Oct-30 19:41 004 0 gusting 5 23.9
2014-Oct-30 19:32 003 23.9
2014-Oct-30 19:23 011 0 gusting 3 23.9
2014-Oct-30 19:05 005 23.9
2014-Oct-30 18:56 353 0 gusting 3 23.9
2014-Oct-30 18:29 358 23.9
2014-Oct-30 18:20 345 0 gusting 1 23.9
2014-Oct-30 18:11 002 0 gusting 2 23.9
2014-Oct-30 17:53 011 24.4
2014-Oct-30 17:35 355 23.9
2014-Oct-30 17:17 343 0 gusting 2 23.9
2014-Oct-30 17:08 351 23.9
2014-Oct-30 16:59 006 0 gusting 2 23.9
2014-Oct-30 16:50 24.4
2014-Oct-30 16:41 24.4
2014-Oct-30 16:32 23.9
2014-Oct-30 16:23 022 23.9
2014-Oct-30 16:14 332 0 gusting 5 23.3
2014-Oct-30 16:05 352 23.9
2014-Oct-30 15:56 345 0 gusting 3 23.3
2014-Oct-30 15:47 358 1 gusting 3 23.9
2014-Oct-30 15:38 023 24.4
2014-Oct-30 15:20 333 23.3
2014-Oct-30 15:11 012 24.4
2014-Oct-30 15:02 013 0 gusting 3 23.9
2014-Oct-30 14:53 008 1 gusting 4 23.9
2014-Oct-30 14:35 345 23.9
2014-Oct-30 14:26 23.9
2014-Oct-30 14:17 337 23.9
2014-Oct-30 13:41 337 24.4
2014-Oct-30 13:05 339 1 gusting 5 23.3
2014-Oct-30 12:56 335 1 gusting 4 23.3
2014-Oct-30 12:38 344 1 gusting 4 23.3
2014-Oct-30 12:29 343 2 gusting 4 23.3
2014-Oct-30 12:11 349 1 gusting 3 23.9
2014-Oct-30 12:02 016 1 gusting 4 24.4
2014-Oct-30 11:35 355 1 gusting 5 25.0
2014-Oct-30 11:08 021 2 gusting 5 25.0
2014-Oct-30 10:59 030 4 gusting 6 25.0
2014-Oct-30 10:50 022 1 gusting 3 25.0
2014-Oct-30 10:41 024 2 gusting 5 25.0
2014-Oct-30 10:23 036 2 gusting 5 25.6
2014-Oct-30 10:14 028 1 gusting 6 25.6
2014-Oct-30 10:05 026 3 gusting 6 25.6
2014-Oct-30 09:56 023 2 gusting 3 25.6
2014-Oct-30 09:20 024 1 gusting 6 25.6
2014-Oct-30 09:11 037 3 gusting 6 26.1
2014-Oct-30 08:53 032 1 gusting 4 26.1
2014-Oct-30 08:44 031 3 gusting 8 26.1
2014-Oct-30 08:35 039 3 gusting 8 26.7
2014-Oct-30 08:08 046 2 gusting 6 26.7
2014-Oct-30 07:50 046 3 gusting 4 27.2
2014-Oct-30 07:14 037 1 gusting 3 27.8
2014-Oct-30 06:20 065 2 gusting 5 29.4
2014-Oct-30 06:11 037 2 gusting 6 30.0
2014-Oct-30 05:17 080 3 gusting 6 28.9
2014-Oct-30 04:41 043 2 gusting 5 30.6
2014-Oct-30 04:23 008 3 gusting 4 30.6
2014-Oct-30 04:14 022 2 gusting 4 30.0
2014-Oct-30 04:05 027 3 gusting 6 30.6
2014-Oct-30 03:56 022 3 gusting 5 30.6
2014-Oct-30 03:47 027 3 gusting 6 30.6
2014-Oct-30 03:38 030 2 gusting 7 30.6
2014-Oct-30 03:29 013 2 gusting 6 30.0
2014-Oct-30 03:20 019 3 gusting 5 30.6
2014-Oct-30 03:02 033 2 gusting 7 30.6
2014-Oct-30 02:53 028 4 gusting 7 30.6
2014-Oct-30 02:26 060 1 gusting 4 29.4
2014-Oct-30 02:17 039 2 gusting 5 29.4
2014-Oct-30 02:08 082 1 gusting 6 29.4
2014-Oct-30 01:59 043 0 gusting 4 29.4
2014-Oct-30 01:50 061 2 gusting 4 29.4
2014-Oct-30 01:41 092 2 gusting 5 29.4
2014-Oct-30 01:32 090 4 gusting 3 29.4
2014-Oct-30 01:14 087 0 gusting 3 29.4
2014-Oct-30 01:05 072 1 gusting 3 28.9
2014-Oct-30 00:56 045 2 gusting 3 29.4
2014-Oct-30 00:47 056 2 gusting 3 29.4
2014-Oct-30 00:11 045 2 gusting 2 28.3
2014-Oct-30 00:02 045 2 gusting 2 28.3
2014-Oct-29 23:35 090 1 gusting 4 27.8
2014-Oct-29 23:26 090 2 gusting 1 27.8
2014-Oct-29 23:17 069 2 gusting 3 27.2
2014-Oct-29 23:08 083 1 gusting 4 27.2
2014-Oct-29 22:59 090 3 gusting 4 26.7
2014-Oct-29 22:50 117 1 gusting 2 26.1
2014-Oct-29 22:32 091 2 gusting 4 25.6
2014-Oct-29 22:23 158 2 gusting 1 25.0
2014-Oct-29 22:05 158 2 gusting 4 23.9
2014-Oct-29 21:56 149 2 gusting 7 23.9
2014-Oct-29 21:47 149 2 gusting 7 23.9
2014-Oct-29 21:38 153 3 gusting 7 23.9
2014-Oct-29 21:29 149 6 gusting 5 23.3
2014-Oct-29 21:11 148 1 gusting 6 22.8
2014-Oct-29 21:02 156 3 gusting 6 22.2
2014-Oct-29 20:53 159 4 gusting 5 22.2
2014-Oct-29 20:35 155 2 gusting 5 21.7
2014-Oct-29 20:08 152 1 gusting 4 20.0
2014-Oct-29 19:59 159 0 gusting 2 20.0
2014-Oct-29 19:50 158 20.0
2014-Oct-29 19:41 158 1 gusting 3 20.0
2014-Oct-29 19:32 158 0 gusting 1 19.4
2014-Oct-29 19:23 158 19.4
2014-Oct-29 19:05 158 0 gusting 3 20.0
2014-Oct-29 18:47 158 20.0
2014-Oct-29 18:38 158 19.4
2014-Oct-29 18:20 158 19.4
2014-Oct-29 18:02 158 19.4